This demonstration page uses our WeatherBlox Daily Observations layout. Learn more.

Left ArrowRight Arrow

34.74481, -87.66753

Hourly Observations for June 4, 2017

Temp ( °F °C ) Dew Point ( °F °C ) Humidity (%) Winds ( mph kmh ) Pressure ( in mb ) Visibility ( mi km ) Precip ( " mm )
12:53 am 00:53 Clear 69 20.6 66 18.9 90 90 Calm 29.97 1015 10 16 0.00 0.00
1:53 am 01:53 Clear 69 20.6 66 18.9 90 90 Calm 29.96 1015 10 16 0.00 0.00
2:53 am 02:53 Clear 69 20.6 66 18.9 90 90 E 5 7 29.96 1014 10 16 0.00 0.00
3:22 am 03:22 Mostly Cloudy 69 20.6 66 18.9 90 90 E 3 6 29.94 1014 10 16 0.00 0.00
3:53 am 03:53 Cloudy 70 21.1 67 19.4 90 90 E 3 6 29.95 1014 10 16 0.00 0.00
4:16 am 04:16 Partly Cloudy 70 21.1 67 19.4 90 90 ENE 3 6 29.94 1014 10 16 0.00 0.00
4:30 am 04:30 Mostly Cloudy 70 21.1 67 19.4 90 90 ESE 3 6 29.94 1014 10 16 0.00 0.00
4:53 am 04:53 Cloudy 70 21.1 68 20 93 93 SSE 5 7 29.96 1015 10 16 0.00 0.00
5:28 am 05:28 Partly Cloudy 70 21.1 67 19.4 90 90 SE 5 7 29.94 1014 10 16 0.00 0.00
5:53 am 05:53 Sunny 69 20.6 67 19.4 93 93 SE 5 7 29.96 1015 10 16 0.00 0.00
6:53 am 06:53 Mostly Cloudy 72 22.2 69 20.6 91 91 SE 3 6 29.96 1015 10 16 0.00 0.00
7:53 am 07:53 Partly Cloudy 74 23.3 70 21.1 88 88 SSE 3 6 29.97 1015 10 16 0.00 0.00
8:20 am 08:20 Mostly Cloudy 75 23.9 70 21.1 84 84 SSE 5 7 29.94 1014 10 16 0.00 0.00
8:53 am 08:53 Cloudy 76 24.4 69 20.6 79 79 S 6 9 29.97 1015 10 16 0.00 0.00
9:02 am 09:02 Cloudy 77 25 69 20.6 77 77 VRB 5 7 29.97 1015 10 16 0.00 0.00
9:53 am 09:53 Mostly Cloudy 78 25.6 69 20.6 74 74 SSW 8 13 29.97 1015 10 16 0.00 0.00
10:53 am 10:53 Cloudy 81 27.2 69 20.6 67 67 SSW 9 15 29.95 1014 10 16 0.00 0.00
11:53 am 11:53 Mostly Cloudy 82 27.8 68 20 63 63 S 8 13 29.93 1014 10 16 0.00 0.00
12:53 pm 12:53 Mostly Cloudy 84 28.9 69 20.6 61 61 S 10 17 29.91 1013 10 16 0.00 0.00
1:53 pm 13:53 Partly Cloudy 86 30 68 20 55 55 S 8 13 29.88 1012 10 16 0.00 0.00
2:53 pm 14:53 Partly Cloudy 85 29.4 68 20 57 57 S 9 15 29.85 1011 10 16 0.00 0.00
3:53 pm 15:53 Mostly Cloudy with Nearby Thunderstorms 85 29.4 68 20 57 57 S 7 11 29.83 1010 10 16 0.00 0.00
4:12 pm 16:12 Mostly Cloudy 85 29.4 67 19.4 55 55 SSW 10 17 29.80 1009 10 16 0.00 0.00
4:53 pm 16:53 Mostly Sunny 84 28.9 68 20 59 59 SSW 10 17 29.83 1010 10 16 0.00 0.03
5:09 pm 17:09 Mostly Cloudy with Thunderstorms 79 26.1 68 20 69 69 W 12 19 29.83 1010 10 16 0.00 0.00
5:25 pm 17:25 Mostly Cloudy with Light Rain 76 24.4 70 21.1 82 82 NW 3 6 29.83 1010 10 16 0.00 0.03
5:53 pm 17:53 Partly Cloudy 77 25 70 21.1 79 79 WSW 10 17 29.84 1010 10 16 0.00 0.03
6:53 pm 18:53 Mostly Cloudy 76 24.4 70 21.1 82 82 SW 6 9 29.85 1011 10 16 0.03 0.76
7:53 pm 19:53 Cloudy 76 24.4 71 21.7 85 85 Calm 29.85 1011 10 16 0.00 0.00
8:53 pm 20:53 Mostly Cloudy 75 23.9 71 21.7 88 88 E 3 6 29.85 1011 10 16 0.00 0.00
9:53 pm 21:53 Mostly Cloudy 75 23.9 71 21.7 88 88 E 3 6 29.85 1011 10 16 0.00 0.00
10:53 pm 22:53 Mostly Clear 74 23.3 70 21.1 88 88 SSE 3 6 29.84 1011 10 16 0.00 0.00
11:53 pm 23:53 Mostly Cloudy 73 22.8 70 21.1 90 90 Calm 29.85 1011 10 16 0.00 0.00

Powered by AerisWeather